KB1JDX Weather Reports


Display with metric or nautical units.
time (UTC)temp
F
wind
direction
speed
MPH
gust
MPH
rain 1hr
in
rain 24hr
in
rain mn
in
humidity
%
barometer
mb
20180818064047 73 217 0.0 5.0 0.00 0.00 0.00 76 1011.5
20180818063852 73 216 0.0 5.0 0.00 0.00 0.00 76 1011.5
20180818061850 74 244 0.0 5.0 0.00 0.00 0.00 76 1011.8
20180818055850 74 238 0.0 0.0 0.00 0.00 0.00 76 1012.0
20180818054047 74 238 0.0 8.0 0.00 0.00 0.00 76 1012.2
20180818053851 74 238 0.0 8.0 0.00 0.00 0.00 76 1012.1
20180818051850 75 238 0.0 8.0 0.00 0.00 0.00 76 1012.3
20180818045851 75 238 0.0 9.0 0.00 0.00 0.00 76 1012.4
20180818044048 76 234 1.0 8.0 0.00 0.00 0.00 76 1012.3
20180818043850 76 213 5.0 8.0 0.00 0.00 0.00 76 1012.4
20180818041849 76 199 0.0 8.0 0.00 0.00 0.00 76 1012.9
20180818035850 76 171 0.0 10.0 0.00 0.00 0.00 76 1012.8
20180818034048 76 229 0.0 7.0 0.00 0.00 0.00 76 1013.0
20180818033852 76 229 0.0 7.0 0.00 0.00 0.00 76 1013.0
20180818031853 76 244 0.0 7.0 0.00 0.00 0.00 76 1013.1
20180818025851 76 221 0.0 8.0 0.00 0.00 0.00 76 1013.1
20180818024047 76 192 3.0 7.0 0.00 0.00 0.00 77 1013.1
20180818023852 76 229 0.0 7.0 0.00 0.00 0.00 77 1013.2
20180818021850 76 277 0.0 7.0 0.00 0.00 0.00 77 1013.7
20180818015851 77 213 0.0 7.0 0.00 0.00 0.00 77 1013.8
20180818014049 77 202 0.0 7.0 0.00 0.00 0.00 77 1013.9
20180818013851 77 202 0.0 7.0 0.00 0.00 0.00 77 1014.0
20180818005852 77 201 0.0 7.0 0.00 0.00 0.00 77 1014.5
20180818004048 77 248 5.0 8.0 0.00 0.00 0.00 77 1014.3
20180818003851 77 254 0.0 8.0 0.00 0.00 0.00 77 1014.3
20180818001851 78 212 0.0 8.0 0.00 0.00 0.00 77 1014.1
20180817235851 78 186 0.0 10.0 0.00 0.00 0.00 77 1013.9
20180817234047 79 217 0.0 9.0 0.00 0.00 0.00 76 1013.9
20180817233850 79 217 0.0 9.0 0.00 0.00 0.00 76 1013.9
20180817231851 80 241 0.0 9.0 0.00 0.00 0.00 76 1013.9
20180817225850 80 261 0.0 9.0 0.00 0.00 0.00 75 1014.0
20180817224048 81 246 0.0 11.0 0.00 0.00 0.00 75 1014.0
20180817223850 81 260 0.0 11.0 0.00 0.00 0.00 75 1014.0
20180817221851 81 237 0.0 11.0 0.00 0.00 0.00 74 1014.3
20180817215850 82 220 0.0 12.0 0.00 0.00 0.00 73 1014.3
20180817214048 83 207 11.0 15.0 0.00 0.00 0.00 72 1014.4
20180817213851 83 227 3.0 15.0 0.00 0.00 0.00 72 1014.4
20180817211851 84 184 4.0 15.0 0.00 0.00 0.00 71 1014.4
20180817204049 85 184 0.0 13.0 0.00 0.00 0.00 69 1014.1
20180817201853 85 202 0.0 13.0 0.00 0.00 0.00 69 1014.3
20180817194049 86 209 8.0 14.0 0.00 0.00 0.00 66 1014.9
20180817193851 86 244 0.0 14.0 0.00 0.00 0.00 65 1015.0
20180817191851 87 240 2.0 14.0 0.00 0.00 0.00 65 1015.2
20180817185851 87 224 6.0 10.0 0.00 0.00 0.00 62 1015.4
20180817184049 88 244 0.0 8.0 0.00 0.00 0.00 63 1015.5
20180817183852 88 237 6.0 8.0 0.00 0.00 0.00 63 1015.6
20180817181851 87 182 0.0 8.0 0.00 0.00 0.00 64 1016.0
20180817175852 86 249 3.0 0.0 0.00 0.00 0.00 70 1016.1
20180817174048 86 242 0.0 6.0 0.00 0.00 0.00 71 1016.3
20180817173850 86 242 0.0 6.0 0.00 0.00 0.00 70 1016.4
20180817171852 85 242 0.0 6.0 0.00 0.00 0.00 70 1016.6
20180817165851 86 244 0.0 7.0 0.00 0.00 0.00 68 1016.9
20180817164048 87 240 0.0 7.0 0.00 0.00 0.00 67 1016.9
20180817163850 87 241 0.0 7.0 0.00 0.00 0.00 69 1016.9
20180817161851 86 241 0.0 7.0 0.00 0.00 0.00 70 1017.1
20180817155850 85 242 0.0 5.0 0.00 0.00 0.00 70 1017.3
20180817154049 84 248 0.0 1.0 0.00 0.00 0.00 70 1017.5
20180817153851 84 248 0.0 1.0 0.00 0.00 0.00 69 1017.5
20180817151851 83 248 0.0 1.0 0.00 0.00 0.00 71 1017.8
20180817145851 82 248 0.0 0.0 0.00 0.00 0.00 73 1017.9
20180817144048 81 304 0.0 0.0 0.00 0.00 0.00 73 1018.2
20180817143850 81 304 0.0 0.0 0.00 0.00 0.00 73 1018.2
20180817141851 81 306 0.0 0.0 0.00 0.00 0.00 72 1018.3
20180817135851 79 306 0.0 0.0 0.00 0.00 0.00 75 1018.4
20180817134049 78 324 0.0 0.0 0.00 0.00 0.00 74 1018.4
20180817133853 78 324 0.0 0.0 0.00 0.00 0.00 75 1018.5
20180817131852 76 324 0.0 0.0 0.00 0.00 0.00 76 1018.4
20180817125852 73 324 0.0 0.0 0.00 0.00 0.00 78 1018.3
20180817124049 71 324 0.0 0.0 0.00 0.00 0.00 77 1018.3
20180817115852 69 324 0.0 0.0 0.00 0.00 0.00 75 1018.5
20180817114048 69 324 0.0 0.0 0.00 0.00 0.00 76 1018.4
20180817113851 69 324 0.0 0.0 0.00 0.00 0.00 76 1018.4
20180817111852 68 324 0.0 0.0 0.00 0.00 0.00 77 1018.6
20180817105851 68 324 0.0 0.0 0.00 0.00 0.00 76 1018.4
20180817104048 68 324 0.0 0.0 0.00 0.00 0.00 76 1018.4
20180817103851 68 324 0.0 0.0 0.00 0.00 0.00 76 1018.4
20180817101849 68 324 0.0 0.0 0.00 0.00 0.00 76 1018.5
20180817095849 68 324 0.0 0.0 0.00 0.00 0.00 76 1018.4
20180817094049 68 324 0.0 0.0 0.00 0.00 0.00 76 1018.3
20180817093850 68 324 0.0 0.0 0.00 0.00 0.00 76 1018.3
20180817091849 68 324 0.0 0.0 0.00 0.00 0.00 76 1018.2
20180817085850 68 324 0.0 0.0 0.00 0.00 0.00 77 1018.1
20180817084047 69 324 0.0 0.0 0.00 0.00 0.00 77 1018.1
20180817083850 69 324 0.0 0.0 0.00 0.00 0.00 77 1018.0
20180817081849 69 324 0.0 0.0 0.00 0.00 0.00 77 1018.0
20180817074046 69 324 0.0 0.0 0.00 0.00 0.00 77 1017.9
20180817073849 69 324 0.0 0.0 0.00 0.00 0.00 77 1018.0
20180817071850 70 324 0.0 0.0 0.00 0.00 0.00 77 1018.0
20180817065849 70 324 0.0 0.0 0.00 0.00 0.00 77 1018.1